Keahole Point, HI

12:10 PM HST on June 24, 2018 (GMT -1000)
Kona International At Keahole

Weather History for PHKO - October, 2017

Change the Weather History Date:

Thursday, October 12, 2017

  Actual Average Record
Temperature  
Mean Temperature 82 °F -  
Max Temperature 86 °F 84 °F 92 °F (1982)
Min Temperature 77 °F 73 °F 61 °F (2010)
Cooling Degree Days 16    
Growing Degree Days 32 (Base 50)    
Moisture  
Dew Point 70 °F    
Average Humidity 68    
Maximum Humidity 74    
Minimum Humidity 59    
Precipitation  
Precipitation 0.00 in - - ()
Sea Level Pressure  
Sea Level Pressure 29.84 in    
Wind  
Wind Speed 9 mph (South)    
Max Wind Speed 21 mph    
Max Gust Speed 29 mph    
Visibility 10 miles    
Events      
Averages and records for this station are not official NWS values.
T = Trace of Precipitation, MM = Missing Value Source: NWS Daily Summary

Daily Weather History Graph

Daily Weather History Graph

Search for Another Location

Airport or City:

Astronomy

Oct. 12, 2017 Rise Set
Actual Time 6:18 AM HST 6:02 PM HST
Civil Twilight 5:55 AM HST 6:24 PM HST
Nautical Twilight 5:30 AM HST 6:50 PM HST
Astronomical Twilight 5:04 AM HST 7:15 PM HST
Moon No Moon Rise 1:12 PM HST (10/12)
Length of Visible Light 12h 28m
Length of Day
11h 44m
Last Quarter, 46% of the Moon is Illuminated
Oct 12
Last Quarter
Oct 19
New
Oct 27
First Quarter
Nov 3
Full
Nov 10
Last Quarter

Hourly Weather History & Observations

Time (HST) Temp. Heat Index Dew Point Humidity Pressure Visibility Wind Dir Wind Speed Gust Speed Precip Events Conditions
12:53 AM 78.1 °F - 69.1 °F 74% 29.88 in 10.0 mi NNE 13.8 mph - 0.00 in   Overcast
1:53 AM 79.0 °F - 68.0 °F 69% 29.87 in 10.0 mi NNE 8.1 mph - N/A   Overcast
2:53 AM 78.1 °F - 69.1 °F 74% 29.86 in 10.0 mi NNE 4.6 mph - N/A   Mostly Cloudy
3:53 AM 77.0 °F - 68.0 °F 74% 29.86 in 10.0 mi NE 3.5 mph - N/A   Clear
4:53 AM 77.0 °F - 68.0 °F 74% 29.86 in 10.0 mi NE 3.5 mph - N/A   Overcast
5:53 AM 78.1 °F - 66.9 °F 68% 29.85 in 10.0 mi Calm Calm - N/A   Partly Cloudy
6:53 AM 77.0 °F - 68.0 °F 74% 29.86 in 10.0 mi North 8.1 mph - N/A   Scattered Clouds
7:53 AM 81.0 °F 83.8 °F 68.0 °F 65% 29.87 in 10.0 mi NNE 6.9 mph - N/A   Partly Cloudy
8:53 AM 82.0 °F 85.9 °F 70.0 °F 67% 29.88 in 10.0 mi SW 5.8 mph - N/A   Partly Cloudy
9:53 AM 82.9 °F 87.5 °F 71.1 °F 67% 29.89 in 10.0 mi SW 8.1 mph - N/A   Partly Cloudy
10:53 AM 84.9 °F 89.4 °F 70.0 °F 61% 29.87 in 10.0 mi South 12.7 mph - N/A   Scattered Clouds
11:53 AM 84.9 °F 88.8 °F 69.1 °F 59% 29.86 in 10.0 mi SSW 12.7 mph - N/A   Scattered Clouds
12:53 PM 86.0 °F 90.7 °F 70.0 °F 59% 29.83 in 10.0 mi SW 12.7 mph - N/A   Mostly Cloudy
1:53 PM 84.9 °F 90.1 °F 71.1 °F 63% 29.80 in 10.0 mi SSW 15.0 mph - N/A   Scattered Clouds
2:53 PM 86.0 °F 91.5 °F 71.1 °F 61% 29.79 in 10.0 mi South 13.8 mph - N/A   Scattered Clouds
3:53 PM 84.0 °F 89.0 °F 71.1 °F 65% 29.79 in 10.0 mi SSW 10.4 mph - N/A   Scattered Clouds
4:53 PM 82.9 °F 87.5 °F 71.1 °F 67% 29.81 in 10.0 mi WNW 5.8 mph - N/A   Scattered Clouds
5:53 PM 82.0 °F 86.3 °F 71.1 °F 69% 29.82 in 10.0 mi WSW 3.5 mph - N/A   Scattered Clouds
6:00 PM 82.0 °F 86.3 °F 71.1 °F 69% 29.82 in 10.0 mi WSW 4.6 mph - N/A   Mostly Cloudy
6:21 PM 82.0 °F 86.3 °F 71.1 °F 69% 29.82 in 10.0 mi Calm Calm - N/A   Scattered Clouds
6:53 PM 81.0 °F 84.9 °F 71.1 °F 72% 29.82 in 10.0 mi Calm Calm - N/A   Scattered Clouds
7:53 PM 81.0 °F 84.4 °F 70.0 °F 69% 29.84 in 10.0 mi SSE 11.5 mph - N/A   Scattered Clouds
8:53 PM 80.1 °F 82.9 °F 69.1 °F 69% 29.85 in 10.0 mi SSE 15.0 mph - N/A   Scattered Clouds
9:53 PM 80.1 °F 83.2 °F 70.0 °F 71% 29.85 in 10.0 mi SSE 20.7 mph 28.8 mph N/A   Clear
10:53 PM 79.0 °F - 68.0 °F 69% 29.86 in 10.0 mi SE 15.0 mph - N/A   Clear
11:48 PM 78.8 °F - 69.8 °F 74% 29.85 in 10.0 mi SSE 12.7 mph - N/A   Mostly Cloudy
11:53 PM 79.0 °F - 70.0 °F 74% 29.85 in 10.0 mi SSE 13.8 mph - N/A   Scattered Clouds